Content
SEND FEEDBACK

Daily
Averages
Monthly
Summary
United States of America

ASATDAS, GUAM


Home > North America > United States > Guam
Elevation: 612 feet     Latitude: 13 35N     Longitude: 144 56E

WEATHER
 
SELECT A DAY
Number of Records: 209,379;   Date Range: 1/1/95 - 9/21/14
 
SHARE

PRINT THIS DATA

[ ← Previous Day ]
WEATHER ALMANAC - JANUARY 9, 2014
[ Next Day → ]
[ °C ]   °F
Weather ElementAverageHighLow
Temperature80.3 °F84 °F (1:54 pm)78.8 °F (5:20 am)
Dewpoint73.2 °F75.2 °F (5:16 pm)71.6 °F (5:20 am)
Humidity79.1 %85 % (9:54 am)69 % (1:54 pm)
Barometer29.83 in29.88 in (9:54 pm)29.77 in (3:54 am)
Wind Speed11.5 mph17.3 mph (7:54 am)
Wind Gust24.2 mph (12:54 pm)
Weather ElementAverage
Visibility9.9 mi
Wind DirectionENE (83.9 °)

Weather ElementTotal
Precipitation---
Cooling Degree Days16.4 (Base 65)
Growing Degree Days31.4 (Base 50)
Averaged from 28 records on January 9, 2014
WEATHER CONDITIONS BREAKOUT
WIND DIRECTION BREAKOUT
WEATHER BY HOUR - JANUARY 9, 2014
[ °C ]   °F
Local TimeTemperatureDewpointHumidityBarometerVisibilityWind DirectionWind SpeedGust SpeedPrecipitationEventsConditions
1:54 AM79.0 °F72.0 °F79 %29.81 in10.0 miENE (70°)9.2 mphPartly Cloudy
2:54 AM79.0 °F72.0 °F79 %29.78 in10.0 miENE (70°)9.2 mphPartly Cloudy
3:54 AM80.1 °F72.0 °F76 %29.77 in10.0 miEast (80°)11.5 mph19.6 mphPartly Cloudy
4:54 AM79.0 °F73.9 °F84 %29.78 in10.0 miENE (70°)13.8 mph0.00 inMostly Cloudy
5:20 AM78.8 °F71.6 °F78 %29.80 in10.0 miEast (80°)11.5 mph17.3 mphMostly Cloudy
5:54 AM79.0 °F72.0 °F79 %29.80 in10.0 miEast (80°)10.4 mph16.1 mphScattered Clouds
6:54 AM79.0 °F73.0 °F82 %29.82 in10.0 miENE (70°)12.7 mphScattered Clouds
7:26 AM78.8 °F73.4 °F83 %29.86 in8.0 miEast (80°)15.0 mph23.0 mph0.00 inRainLight Rain
7:33 AM78.8 °F73.4 °F83 %29.86 in10.0 miEast (80°)15.0 mph0.00 inMostly Cloudy
7:54 AM80.1 °F73.0 °F79 %29.85 in10.0 miEast (80°)17.3 mph21.9 mph0.00 inMostly Cloudy
8:54 AM81.0 °F73.0 °F77 %29.86 in10.0 miEast (90°)17.3 mphMostly Cloudy
9:54 AM80.1 °F75.0 °F85 %29.86 in10.0 miEast (90°)13.8 mph19.6 mph0.00 inRainLight Rain
10:54 AM82.9 °F73.9 °F74 %29.86 in10.0 miEast (100°)15.0 mph23.0 mph0.00 inScattered Clouds
11:54 AM80.1 °F75.0 °F85 %29.85 in10.0 miEast (80°)11.5 mph0.00 inOvercast
12:54 PM82.9 °F73.0 °F72 %29.82 in10.0 miEast (80°)15.0 mph24.2 mphMostly Cloudy
1:54 PM84.0 °F73.0 °F69 %29.80 in10.0 miESE (110°)16.1 mph23.0 mphMostly Cloudy
2:54 PM82.9 °F73.0 °F72 %29.78 in10.0 miESE (110°)11.5 mphMostly Cloudy
3:54 PM81.0 °F73.9 °F79 %29.79 in10.0 miENE (70°)11.5 mphOvercast
4:27 PM80.6 °F73.4 °F79 %29.81 in10.0 miEast (100°)9.2 mph19.6 mphMostly Cloudy
4:54 PM80.1 °F75.0 °F85 %29.80 in10.0 miEast (90°)9.2 mph0.00 inRainLight Rain
5:16 PM80.6 °F75.2 °F84 %29.82 in10.0 miEast (90°)10.4 mph0.00 inScattered Clouds
5:54 PM81.0 °F73.0 °F77 %29.81 in10.0 miEast (80°)11.5 mph0.00 inPartly Cloudy
6:54 PM80.1 °F73.0 °F79 %29.83 in10.0 miEast (80°)9.2 mphPartly Cloudy
7:54 PM80.1 °F73.0 °F79 %29.85 in10.0 miEast (80°)6.9 mphPartly Cloudy
8:54 PM80.1 °F73.0 °F79 %29.87 in10.0 miEast (80°)8.1 mphMostly Cloudy
9:54 PM80.1 °F73.0 °F79 %29.88 in10.0 miEast (80°)6.9 mphMostly Cloudy
10:54 PM80.1 °F73.0 °F79 %29.87 in10.0 miEast (90°)5.8 mphMostly Cloudy
11:54 PM79.0 °F72.0 °F79 %29.87 in10.0 miEast (90°)8.1 mphPartly Cloudy
Hourly data recorded from PGUM, located miles away from Asatdas, Guam







STORIES FROM OUR PARTNERS